Погода в Сиренсестере

Великобритания     51°42′38″N   1°57′53″W
темп.,
°C
ветер,
м/с
пор.,
м/с
влажн.,
%
обл.,
%
осадки,
мм/ч
давл.,
гПа
погр.,
м
9 марта, вт
вт900:00+1з229231 0.0 102322
03:000зюз22920 0.0 102228
06:000з23910 0.0 102145
09:00+4зюз47820 0.0 1021306
12:00+8зюз58730 0.0 1021574
15:00+8юз576939 0.0 1019637
18:00+4ююз379170 0.0 1018157
21:00+3ююз61390100 0.0 1017422
10 марта, ср
ср1000:00+4ююз71686100 0.0 1015730
03:00+4ююз71685100 0.1 1012749
06:00+5ююз81796100 1.6 1010743
09:00+7ююз91795100 1.6 1008771
12:00+8ююз91696100 2.6 1007671
15:00+10ююз91596100 0.8 1004680
18:00+11ююз101897100 1.3 1000779
21:00+11юз101994100 0.8 9981037
11 марта, чт
чт1100:00+10юз122386100 2.0 9951648
03:00+7юз12238476 0.3 9941630
06:00+6зюз14248485 0.8 9941644
09:00+7зюз12217883 0.2 9961689
12:00+8зюз12187287 0.8 9981879
15:00+7зюз111872100 1.0 9991842
18:00+4з8167985 1.6 10021237
21:00+3зюз716780 0.0 1006834
12 марта, пт
пт1200:00+4зюз8167839 0.0 10071069
03:00+4юз8159092 0.6 10061129
06:00+5зюз8148896 1.3 10041064
09:00+5юз9149494 0.6 10041101
12:00+7з10137482 1.9 10051533
15:00+7зюз9147162 0.6 10051641
18:00+5зюз8148081 0.6 10041072
21:00+5юз91782100 0.0 10021182
13 марта, сб
сб1300:00+6юз112093100 2.2 9991286
03:00+6зюз111992100 1.1 9951260
06:00+5зюз101794100 4.3 9941167
09:00+6зюз11178790 1.1 9941390
12:00+6зюз13197695 2.1 9941927
15:00+5з121874100 0.9 9951844
18:00+3зсз91495100 2.8 998949
21:00+3зсз8158994 0.2 1003951